Tyler, TX

6:06 AM CDT on July 28, 2017 (GMT -0500)
Tyler Pounds

Weather History for KTYR - January, 2014

Change the Weather History Date:

Friday, January 10, 2014

  Actual Average Record
Temperature  
Mean Temperature 60 °F 46 °F  
Max Temperature 64 °F 56 °F 82 °F (1957)
Min Temperature 55 °F 37 °F 5 °F (1962)
Degree Days  
Heating Degree Days 5 19  
Month to date heating degree days 226 190  
Since 1 July heating degree days 1186 1091  
Cooling Degree Days 0 0  
Month to date cooling degree days 0 0  
Year to date cooling degree days 0 0  
Growing Degree Days 10 (Base 50)    
Moisture  
Dew Point 59 °F    
Average Humidity 89    
Maximum Humidity 100    
Minimum Humidity 78    
Precipitation  
Precipitation 0.49 in 0.10 in 2.53 in (1975)
Month to date precipitation 0.70 1.07  
Year to date precipitation 0.70 1.07  
Snow  
Snow 0.00 in - - ()
Month to date snowfall 0.0  
Since 1 July snowfall T  
Snow Depth 0.00 in    
Sea Level Pressure  
Sea Level Pressure 29.83 in    
Wind  
Wind Speed 13 mph (SSW)    
Max Wind Speed 21 mph    
Max Gust Speed 28 mph    
Visibility 8 miles    
Events Rain    
T = Trace of Precipitation, MM = Missing Value Source: NWS Daily Summary

Daily Weather History Graph

Daily Weather History Graph

Search for Another Location

Airport or City:

Trip Planner

Search our weather history database for the weather conditions in past years. The results will help you decide how hot, cold, wet, or windy it might be!

Date:

Astronomy

Jan. 10, 2014 Rise Set
Actual Time 7:23 AM CST 5:34 PM CST
Civil Twilight 6:57 AM CST 6:01 PM CST
Nautical Twilight 6:26 AM CST 6:31 PM CST
Astronomical Twilight 5:57 AM CST 7:01 PM CST
Moon 1:35 PM CST (1/10) 2:37 AM CST (1/10)
Length of Visible Light 11h 04m
Length of Day
10h 11m
Waxing Gibbous, 75% of the Moon is Illuminated
Jan 10
Waxing Gibbous
Jan 15
Full
Jan 23
Last Quarter
Jan 30
New
Feb 6
First Quarter

Hourly Weather History & Observations

Time (CST) Temp. Dew Point Humidity Pressure Visibility Wind Dir Wind Speed Gust Speed Precip Events Conditions
12:53 AM 55.9 °F 55.9 °F 100% 30.02 in 8.0 mi SSE 11.5 mph - 0.00 in   Overcast
1:10 AM 55.4 °F 55.4 °F 100% 30.02 in 9.0 mi SSE 11.5 mph - N/A   Overcast
1:53 AM 57.9 °F 57.0 °F 97% 30.00 in 10.0 mi SSE 10.4 mph - N/A   Overcast
2:53 AM 59.0 °F 57.0 °F 93% 29.99 in 10.0 mi South 13.8 mph - 0.00 in   Overcast
3:53 AM 59.0 °F 57.0 °F 93% 29.99 in 10.0 mi South 11.5 mph - N/A   Overcast
4:53 AM 59.0 °F 57.0 °F 93% 29.95 in 10.0 mi South 16.1 mph - N/A   Overcast
5:12 AM 59.0 °F 55.4 °F 88% 29.96 in 10.0 mi South 15.0 mph 20.7 mph N/A   Overcast
5:36 AM 59.0 °F 55.4 °F 88% 29.95 in 10.0 mi South 12.7 mph - N/A   Overcast
5:53 AM 57.9 °F 55.9 °F 93% 29.94 in 10.0 mi South 11.5 mph - N/A   Overcast
6:53 AM 59.0 °F 55.9 °F 90% 29.94 in 10.0 mi South 13.8 mph - N/A   Overcast
7:53 AM 59.0 °F 55.9 °F 90% 29.95 in 10.0 mi South 11.5 mph - N/A   Overcast
8:53 AM 59.0 °F 55.9 °F 90% 29.92 in 10.0 mi South 17.3 mph - N/A   Overcast
9:51 AM 60.8 °F 55.4 °F 82% 29.92 in 10.0 mi South 12.7 mph - N/A   Overcast
9:53 AM 60.1 °F 55.9 °F 86% 29.92 in 10.0 mi South 15.0 mph - N/A   Overcast
10:53 AM 61.0 °F 57.0 °F 87% 29.89 in 10.0 mi South 15.0 mph - N/A   Overcast
11:53 AM 63.0 °F 57.9 °F 84% 29.85 in 10.0 mi SSW 16.1 mph - N/A   Overcast
12:53 PM 64.0 °F 57.9 °F 80% 29.80 in 10.0 mi South 13.8 mph 27.6 mph 0.00 in   Overcast
1:53 PM 63.0 °F 60.1 °F 90% 29.75 in 5.0 mi South 11.5 mph - 0.01 in Rain Light Rain
2:36 PM 62.6 °F 60.8 °F 94% 29.76 in 4.0 mi SW 11.5 mph - 0.02 in Rain Rain
2:40 PM 62.6 °F 60.8 °F 94% 29.76 in 1.8 mi West 10.4 mph - 0.08 in Rain Heavy Rain
2:48 PM 62.6 °F 60.8 °F 94% 29.76 in 0.8 mi SW 12.7 mph - 0.22 in Rain Heavy Rain
2:53 PM 62.1 °F 61.0 °F 96% 29.76 in 1.0 mi SW 13.8 mph - 0.29 in Rain Heavy Rain
3:11 PM 62.6 °F 60.8 °F 94% 29.75 in 2.5 mi South 12.7 mph - 0.11 in Rain Heavy Rain
3:19 PM 62.6 °F 60.8 °F 94% 29.76 in 5.0 mi SSW 12.7 mph - 0.11 in Rain Light Rain
3:53 PM 63.0 °F 61.0 °F 93% 29.74 in 10.0 mi South 11.5 mph - 0.12 in Rain Light Rain
4:02 PM 62.6 °F 60.8 °F 94% 29.74 in 10.0 mi South 12.7 mph 21.9 mph 0.00 in   Overcast
4:53 PM 63.0 °F 61.0 °F 93% 29.72 in 10.0 mi South 15.0 mph - 0.00 in   Overcast
5:22 PM 62.6 °F 60.8 °F 94% 29.73 in 10.0 mi South 11.5 mph 21.9 mph N/A   Overcast
5:31 PM 62.6 °F 60.8 °F 94% 29.73 in 10.0 mi South 15.0 mph - N/A   Overcast
5:40 PM 62.6 °F 60.8 °F 94% 29.73 in 10.0 mi South 15.0 mph - N/A   Overcast
5:53 PM 63.0 °F 61.0 °F 93% 29.72 in 10.0 mi South 13.8 mph - N/A   Overcast
6:21 PM 62.6 °F 60.8 °F 94% 29.72 in 10.0 mi South 13.8 mph - N/A   Overcast
6:36 PM 62.6 °F 60.8 °F 94% 29.73 in 10.0 mi SSW 15.0 mph - N/A   Overcast
6:53 PM 63.0 °F 61.0 °F 93% 29.73 in 10.0 mi SSW 12.7 mph - N/A   Overcast
7:53 PM 63.0 °F 61.0 °F 93% 29.75 in 10.0 mi SW 9.2 mph - N/A   Overcast
8:53 PM 63.0 °F 61.0 °F 93% 29.77 in 10.0 mi SW 10.4 mph - N/A   Overcast
9:45 PM 60.8 °F 59.0 °F 94% 29.78 in 8.0 mi SSW 9.2 mph - N/A   Partly Cloudy
9:53 PM 61.0 °F 59.0 °F 93% 29.77 in 8.0 mi SSW 9.2 mph - N/A   Partly Cloudy
10:51 PM 60.8 °F 60.8 °F 100% 29.82 in 4.0 mi NW 15.0 mph 21.9 mph 0.04 in Rain Rain
10:53 PM 61.0 °F 60.1 °F 97% 29.81 in 4.0 mi WNW 16.1 mph 21.9 mph 0.05 in Rain Rain
11:07 PM 62.6 °F 60.8 °F 94% 29.83 in 10.0 mi WNW 9.2 mph - 0.02 in Rain Light Rain
11:15 PM 60.8 °F 59.0 °F 94% 29.83 in 10.0 mi WNW 11.5 mph - 0.02 in   Overcast
11:24 PM 60.8 °F 57.2 °F 88% 29.84 in 10.0 mi NW 8.1 mph - 0.02 in   Scattered Clouds
11:53 PM 57.9 °F 54.0 °F 87% 29.83 in 10.0 mi NNW 5.8 mph - 0.02 in   Clear